Regional Weather Roundup
Issued by NWS Burlington, VT

Current Version | Previous Version | Text Only | Print | Product List | Glossary On
Versions: 1 2 3 4 5 6 7 8 9 10 11 12 13 14 15 16 17 18 19 20 21 22 23 24 25 26 27 28 29 30 31 32 33 34 35 36 37 38 39 40 41 42 43 44 45 46 47 48 49 50
000 ASUS41 KBTV 200130 RWRBTV VERMONT REGIONAL WEATHER ROUNDUP NATIONAL WEATHER SERVICE BURLINGTON VT 900 PM EDT THU OCT 19 2017 NOTE: "FAIR" INDICATES FEW OR NO CLOUDS BELOW 12,000 FEET WITH NO SIGNIFICANT WEATHER AND/OR OBSTRUCTIONS TO VISIBILITY. * THESE REPORTS ARE NOT UNDER NWS QUALITY CONTROL AND/OR DO NOT REPORT WEATHER SUCH AS PRECIPITATION AND FOG. VTZ001>019-200200- _____VERMONT_____ CITY SKY/WX TMP DP RH WIND PRES REMARKS BURLINGTON CLOUDY 67 44 43 W6 29.93R MONTPELIER CLOUDY 64 41 42 SW6 29.97R MORRISVILLE CLOUDY 63 42 46 S5 29.92S ST. JOHNSBURY* N/A 64 40 41 MISG 29.89F LYNDONVILLE* FAIR 60 37 42 S6 29.93S MIDDLEBURY* CLOUDY 65 44 46 S3 29.95S RUTLAND* CLOUDY 66 42 41 SW6 29.96F SPRINGFIELD CLOUDY 54 44 69 CALM 29.96S HIGHGATE* FAIR 64 49 58 W3 29.91R NEWPORT* FAIR 62 44 50 W18G28 29.90S BENNINGTON CLOUDY 63 42 46 SW10G18 29.99S SUTTON* N/A 61 N/A N/A MISG N/A ISLAND POND* N/A 63 N/A N/A W5 N/A GALLUP MILLS* N/A 59 N/A N/A MISG N/A UNION VILLAGE* N/A 50 N/A N/A MISG N/A MT. MANSFIELD* N/A 50 N/A N/A W43G56 N/A _____LAKE CHAMPLAIN_____ CITY SKY/WX TMP DP RH WIND PRES REMARKS BURTON ISLAND* N/A 66 50 55 W14G20 N/A COLCHESTER RF* N/A 68 48 49 W21G30 N/A DIAMOND ISL* N/A 68 41 37 SW13G20 N/A $$ NYZ007-026>031-035-052-083-087-200200- _____NORTHERN NEW YORK_____ CITY SKY/WX TMP DP RH WIND PRES REMARKS PLATTSBURGH CLOUDY 66 46 48 VRB7 29.91S SARANAC LAKE PTCLDY 57 49 74 W10G22 29.96R MASSENA CLEAR 62 54 74 SW12 29.94R OGDENSBURG* FAIR 60 51 72 W9 29.96R POTSDAM* CLEAR 59 55 88 W13G18 29.95R STARK FALLS* N/A 57 N/A N/A SW8 N/A WATERTOWN CLOUDY 60 54 80 W12 30.00R FT DRUM CLOUDY 60 51 70 W8G18 29.98 ALBANY CLOUDY 61 45 55 S7 29.99S GLENS FALLS CLOUDY 61 45 55 S9 29.97R $$ NHZ002-005-011-200200- _____NEW HAMPSHIRE_____ CITY SKY/WX TMP DP RH WIND PRES REMARKS LEBANON CLOUDY 61 42 49 S14 29.93F KEENE CLEAR 55 40 56 CALM 30.00R PLYMOUTH FAIR 52 42 70 CALM 29.93R WHITEFIELD MOCLDY 64 38 38 VRB7 29.92R $$ _____REGIONAL QUEBEC LOCATIONS_____ CITY SKY/WX TMP DP RH WIND PRES REMARKS MONTREAL MOCLDY 63 52 67 SW20G29 29.88R QUEBEC CITY PTCLDY 57 48 72 W10G17 29.77R SHERBROOKE MOCLDY 63 46 55 W15G30 29.87R _____REGIONAL ONTARIO LOCATIONS_____ CITY SKY/WX TMP DP RH WIND PRES REMARKS OTTAWA PTCLDY 55 39 54 W12 29.93R ______KEY______ VSB - VISIBILITY IN MILES WCI - WIND CHILL INDEX HX - HEAT INDEX $$ NNNN

USA.gov is the U.S. government's official web portal to all federal, state and local government web resources and services.